Location: Monfort
(47.1967°N, 0.2115°W)
Time: 11:06:06
(UTC+00:00)

Cosmos 1408 - Pass Details

Date: 24 October 2020
Orbit: 470 x 492 km, 82.6° (Epoch: 27 November)

Event Time Altitude Azimuth Distance (km) Brightness Sun altitude
Rises 18:45:15 0° 355° (N) 2,548 6.3 -19.1°
Reaches altitude 10° 18:47:24 10° 1° (N) 1,668 5.3 -19.4°
Enters shadow 18:49:33 31° 20° (NNE) 872 3.6 -19.8°
